Precipitable_Water
0.40 0.40 0.40 0.40 0.40 0.41 0.41 0.42 0.43 0.45 0.46 0.47 0.47 0.47 0.48 0.48 0.48 0.48 0.47 0.48 0.47 0.48 0.47 0.45 0.44 0.43 0.42 0.42 0.40 0.39 0.39 0.38 0.37 0.36 0.35 0.34 0.33 0.33 0.33 0.32 0.30 0.29 0.30 0.33 0.33 0.32 0.31 0.32 0.33 0.33 0.34 0.34 0.35 0.35 0.35 0.36 0.36 0.36 0.35 0.35 0.35 0.35 0.35
0.38 0.38 0.38 0.38 0.38 0.39 0.39 0.40 0.40 0.41 0.42 0.43 0.43 0.44 0.45 0.45 0.45 0.45 0.46 0.46 0.45 0.46 0.46 0.46 0.45 0.45 0.45 0.45 0.44 0.43 0.42 0.42 0.41 0.41 0.39 0.39 0.38 0.37 0.36 0.37 0.34 0.33 0.32 0.31 0.34 0.33 0.34 0.33 0.34 0.33 0.35 0.34 0.33 0.34 0.35 0.36 0.37 0.38 0.38 0.37 0.37 0.37 0.36
0.34 0.34 0.35 0.35 0.36 0.36 0.37 0.38 0.38 0.39 0.40 0.41 0.41 0.41 0.42 0.43 0.43 0.43 0.43 0.43 0.44 0.45 0.45 0.45 0.45 0.45 0.45 0.46 0.45 0.45 0.45 0.45 0.45 0.44 0.43 0.42 0.41 0.40 0.40 0.39 0.39 0.36 0.34 0.34 0.34 0.36 0.36 0.35 0.34 0.34 0.34 0.35 0.35 0.36 0.37 0.37 0.38 0.38 0.37 0.37 0.37 0.36 0.36
0.31 0.31 0.31 0.31 0.32 0.32 0.33 0.34 0.35 0.36 0.37 0.38 0.38 0.39 0.39 0.40 0.40 0.41 0.41 0.41 0.42 0.42 0.43 0.43 0.43 0.44 0.44 0.45 0.44 0.44 0.44 0.45 0.45 0.45 0.45 0.44 0.44 0.44 0.42 0.42 0.41 0.40 0.38 0.37 0.35 0.37 0.37 0.37 0.35 0.35 0.35 0.36 0.36 0.36 0.36 0.37 0.37 0.37 0.36 0.36 0.36 0.36 0.35
0.27 0.27 0.28 0.29 0.29 0.29 0.29 0.30 0.31 0.32 0.32 0.34 0.35 0.36 0.36 0.36 0.37 0.37 0.38 0.39 0.39 0.40 0.41 0.41 0.41 0.42 0.43 0.43 0.42 0.43 0.43 0.43 0.43 0.44 0.44 0.44 0.44 0.44 0.44 0.44 0.43 0.42 0.41 0.39 0.38 0.38 0.40 0.40 0.38 0.37 0.35 0.35 0.35 0.36 0.36 0.37 0.37 0.36 0.36 0.36 0.37 0.37 0.38
0.23 0.24 0.23 0.24 0.24 0.25 0.25 0.26 0.28 0.29 0.28 0.29 0.30 0.31 0.32 0.33 0.33 0.34 0.34 0.35 0.36 0.37 0.38 0.38 0.39 0.40 0.40 0.41 0.40 0.41 0.41 0.42 0.42 0.42 0.42 0.42 0.42 0.43 0.43 0.42 0.42 0.42 0.41 0.40 0.39 0.39 0.38 0.40 0.39 0.39 0.38 0.37 0.36 0.35 0.35 0.36 0.36 0.37 0.37 0.37 0.36 0.37 0.38
0.21 0.22 0.22 0.22 0.22 0.23 0.23 0.24 0.25 0.26 0.26 0.26 0.27 0.28 0.29 0.29 0.30 0.31 0.32 0.32 0.33 0.33 0.34 0.34 0.35 0.36 0.37 0.37 0.38 0.38 0.39 0.39 0.40 0.40 0.40 0.41 0.41 0.41 0.41 0.40 0.40 0.40 0.40 0.39 0.39 0.39 0.39 0.39 0.40 0.39 0.38 0.40 0.39 0.37 0.36 0.35 0.35 0.35 0.37 0.38 0.38 0.37 0.39
0.19 0.20 0.20 0.20 0.20 0.20 0.21 0.21 0.23 0.23 0.24 0.25 0.26 0.26 0.27 0.27 0.28 0.28 0.29 0.29 0.30 0.31 0.32 0.33 0.32 0.32 0.32 0.33 0.34 0.35 0.36 0.37 0.37 0.38 0.38 0.39 0.40 0.39 0.39 0.38 0.38 0.38 0.38 0.37 0.37 0.37 0.37 0.38 0.38 0.39 0.41 0.41 0.40 0.37 0.36 0.37 0.36 0.34 0.36 0.37 0.39 0.39 0.39
0.17 0.18 0.18 0.18 0.18 0.19 0.19 0.19 0.20 0.21 0.21 0.23 0.24 0.25 0.25 0.26 0.27 0.27 0.27 0.28 0.28 0.29 0.29 0.29 0.29 0.30 0.30 0.31 0.32 0.32 0.33 0.33 0.34 0.34 0.34 0.36 0.37 0.37 0.37 0.36 0.36 0.36 0.36 0.36 0.36 0.35 0.37 0.36 0.36 0.37 0.37 0.38 0.38 0.36 0.35 0.37 0.37 0.36 0.36 0.37 0.37 0.38 0.41
0.17 0.17 0.17 0.17 0.17 0.17 0.17 0.17 0.18 0.18 0.19 0.21 0.22 0.22 0.23 0.24 0.25 0.25 0.26 0.26 0.27 0.27 0.28 0.29 0.29 0.29 0.29 0.29 0.29 0.30 0.31 0.31 0.32 0.32 0.33 0.33 0.33 0.33 0.33 0.34 0.34 0.34 0.34 0.34 0.33 0.33 0.34 0.33 0.33 0.34 0.36 0.36 0.37 0.38 0.37 0.35 0.34 0.33 0.35 0.35 0.35 0.36 0.37
0.15 0.16 0.16 0.16 0.16 0.15 0.15 0.16 0.16 0.16 0.17 0.18 0.19 0.19 0.20 0.21 0.22 0.23 0.23 0.24 0.24 0.25 0.26 0.28 0.29 0.29 0.29 0.29 0.29 0.28 0.27 0.27 0.28 0.29 0.30 0.31 0.32 0.33 0.32 0.31 0.31 0.31 0.32 0.32 0.31 0.32 0.32 0.32 0.32 0.33 0.34 0.34 0.35 0.35 0.35 0.34 0.33 0.32 0.32 0.31 0.30 0.29 0.32
0.15 0.15 0.15 0.15 0.14 0.14 0.14 0.14 0.14 0.15 0.15 0.16 0.17 0.17 0.18 0.18 0.18 0.19 0.19 0.20 0.21 0.22 0.23 0.24 0.25 0.26 0.27 0.28 0.28 0.28 0.28 0.27 0.27 0.27 0.27 0.27 0.28 0.28 0.30 0.31 0.31 0.30 0.29 0.30 0.29 0.29 0.30 0.30 0.30 0.31 0.32 0.33 0.33 0.33 0.33 0.33 0.32 0.31 0.31 0.30 0.29 0.29 0.28
0.14 0.14 0.14 0.14 0.14 0.13 0.13 0.13 0.13 0.13 0.14 0.15 0.16 0.16 0.16 0.16 0.16 0.16 0.16 0.16 0.17 0.18 0.19 0.21 0.22 0.23 0.24 0.25 0.26 0.27 0.27 0.27 0.27 0.27 0.26 0.26 0.26 0.26 0.26 0.27 0.28 0.29 0.30 0.30 0.29 0.28 0.28 0.29 0.29 0.29 0.30 0.32 0.32 0.32 0.31 0.31 0.30 0.30 0.30 0.29 0.28 0.28 0.28
0.13 0.13 0.12 0.13 0.12 0.13 0.13 0.12 0.12 0.13 0.14 0.14 0.14 0.15 0.15 0.15 0.14 0.14 0.14 0.14 0.14 0.15 0.16 0.17 0.18 0.19 0.20 0.21 0.22 0.23 0.24 0.24 0.25 0.25 0.25 0.25 0.25 0.25 0.25 0.25 0.26 0.26 0.27 0.28 0.28 0.28 0.27 0.29 0.30 0.29 0.30 0.31 0.32 0.30 0.29 0.29 0.28 0.29 0.28 0.27 0.27 0.28 0.28
0.11 0.11 0.11 0.11 0.11 0.11 0.11 0.11 0.11 0.12 0.13 0.13 0.13 0.14 0.14 0.13 0.13 0.13 0.12 0.13 0.13 0.13 0.13 0.14 0.15 0.16 0.16 0.17 0.18 0.19 0.21 0.21 0.22 0.23 0.24 0.24 0.24 0.24 0.24 0.24 0.25 0.25 0.25 0.25 0.26 0.26 0.27 0.28 0.29 0.30 0.30 0.31 0.31 0.31 0.31 0.30 0.30 0.29 0.29 0.29 0.29 0.28 0.28
0.11 0.11 0.11 0.11 0.11 0.10 0.10 0.10 0.10 0.11 0.11 0.11 0.12 0.12 0.12 0.12 0.11 0.11 0.11 0.11 0.12 0.12 0.12 0.13 0.14 0.14 0.14 0.14 0.15 0.16 0.17 0.18 0.19 0.19 0.20 0.20 0.21 0.21 0.22 0.23 0.24 0.25 0.26 0.26 0.26 0.26 0.26 0.26 0.26 0.27 0.27 0.28 0.29 0.29 0.30 0.31 0.31 0.30 0.29 0.27 0.26 0.25 0.26
0.10 0.10 0.10 0.10 0.10 0.10 0.09 0.09 0.10 0.10 0.10 0.11 0.11 0.11 0.11 0.11 0.10 0.10 0.10 0.10 0.11 0.12 0.13 0.13 0.13 0.14 0.14 0.14 0.14 0.14 0.14 0.15 0.15 0.15 0.15 0.16 0.17 0.18 0.19 0.20 0.21 0.23 0.24 0.25 0.26 0.26 0.27 0.28 0.28 0.29 0.29 0.29 0.29 0.28 0.29 0.28 0.27 0.26 0.27 0.25 0.24 0.24 0.24
0.09 0.09 0.09 0.09 0.09 0.09 0.09 0.09 0.09 0.09 0.09 0.10 0.10 0.11 0.10 0.10 0.10 0.09 0.10 0.10 0.11 0.11 0.11 0.11 0.12 0.12 0.12 0.12 0.12 0.13 0.13 0.13 0.13 0.12 0.13 0.14 0.14 0.14 0.15 0.16 0.18 0.19 0.20 0.20 0.21 0.21 0.22 0.23 0.24 0.25 0.26 0.28 0.29 0.29 0.29 0.27 0.24 0.25 0.25 0.24 0.23 0.22 0.23
0.08 0.08 0.09 0.08 0.08 0.08 0.08 0.08 0.08 0.08 0.09 0.09 0.10 0.10 0.10 0.10 0.09 0.09 0.09 0.09 0.09 0.10 0.10 0.10 0.10 0.10 0.11 0.11 0.11 0.11 0.12 0.12 0.12 0.13 0.12 0.12 0.12 0.12 0.12 0.13 0.15 0.15 0.15 0.16 0.17 0.17 0.18 0.19 0.20 0.21 0.22 0.23 0.24 0.25 0.26 0.27 0.27 0.27 0.26 0.24 0.23 0.23 0.23
0.08 0.07 0.07 0.07 0.07 0.07 0.07 0.07 0.07 0.08 0.08 0.08 0.09 0.09 0.09 0.09 0.09 0.08 0.09 0.09 0.09 0.08 0.09 0.09 0.09 0.09 0.09 0.09 0.10 0.10 0.11 0.12 0.12 0.11 0.11 0.11 0.11 0.10 0.11 0.12 0.13 0.13 0.14 0.14 0.14 0.14 0.14 0.15 0.15 0.16 0.17 0.18 0.19 0.20 0.22 0.25 0.24 0.24 0.24 0.24 0.24 0.24 0.23
0.07 0.07 0.07 0.07 0.07 0.07 0.07 0.07 0.07 0.07 0.08 0.08 0.08 0.08 0.09 0.09 0.08 0.08 0.08 0.08 0.08 0.08 0.08 0.08 0.08 0.09 0.09 0.09 0.10 0.10 0.10 0.10 0.11 0.11 0.10 0.10 0.10 0.10 0.11 0.12 0.12 0.12 0.12 0.12 0.12 0.12 0.12 0.12 0.13 0.14 0.15 0.16 0.17 0.18 0.18 0.19 0.21 0.23 0.23 0.22 0.21 0.21 0.22
0.06 0.06 0.06 0.06 0.06 0.07 0.06 0.07 0.07 0.07 0.07 0.07 0.07 0.08 0.08 0.08 0.08 0.08 0.08 0.07 0.07 0.08 0.08 0.08 0.08 0.08 0.08 0.08 0.09 0.09 0.09 0.10 0.10 0.10 0.10 0.10 0.10 0.10 0.10 0.10 0.10 0.11 0.11 0.11 0.12 0.12 0.12 0.12 0.13 0.13 0.13 0.13 0.13 0.13 0.14 0.16 0.17 0.18 0.19 0.20 0.19 0.19 0.19
0.06 0.06 0.06 0.06 0.06 0.06 0.06 0.06 0.06 0.06 0.06 0.07 0.07 0.07 0.07 0.07 0.07 0.08 0.08 0.07 0.07 0.07 0.07 0.07 0.07 0.08 0.08 0.08 0.08 0.09 0.09 0.10 0.10 0.10 0.09 0.09 0.09 0.09 0.09 0.09 0.09 0.09 0.09 0.09 0.10 0.10 0.10 0.11 0.11 0.11 0.11 0.11 0.11 0.11 0.12 0.13 0.15 0.16 0.18 0.19 0.19 0.19 0.19
0.06 0.06 0.06 0.06 0.06 0.06 0.06 0.06 0.06 0.06 0.06 0.06 0.06 0.06 0.07 0.07 0.07 0.07 0.07 0.07 0.07 0.07 0.07 0.07 0.07 0.07 0.08 0.08 0.08 0.09 0.09 0.09 0.09 0.09 0.08 0.08 0.08 0.08 0.08 0.08 0.08 0.08 0.08 0.08 0.08 0.08 0.09 0.09 0.09 0.10 0.10 0.10 0.10 0.10 0.11 0.11 0.13 0.14 0.15 0.16 0.17 0.18 0.18
0.06 0.05 0.05 0.06 0.05 0.05 0.06 0.06 0.06 0.06 0.06 0.06 0.06 0.06 0.07 0.07 0.07 0.07 0.07 0.06 0.06 0.07 0.07 0.07 0.07 0.07 0.07 0.08 0.08 0.08 0.08 0.08 0.08 0.08 0.08 0.08 0.08 0.08 0.08 0.07 0.07 0.07 0.07 0.07 0.07 0.07 0.08 0.08 0.08 0.08 0.09 0.10 0.10 0.11 0.11 0.12 0.12 0.12 0.13 0.15 0.16 0.16 0.17
0.05 0.05 0.05 0.05 0.05 0.05 0.05 0.05 0.06 0.06 0.06 0.06 0.06 0.06 0.07 0.07 0.07 0.06 0.06 0.06 0.06 0.06 0.06 0.07 0.07 0.07 0.07 0.07 0.07 0.07 0.07 0.07 0.08 0.08 0.08 0.08 0.08 0.07 0.07 0.07 0.07 0.07 0.06 0.06 0.06 0.07 0.07 0.08 0.08 0.09 0.09 0.09 0.10 0.09 0.09 0.09 0.10 0.10 0.10 0.11 0.13 0.13 0.14
0.05 0.05 0.05 0.05 0.05 0.05 0.05 0.05 0.05 0.05 0.05 0.06 0.06 0.06 0.06 0.06 0.06 0.06 0.06 0.06 0.06 0.06 0.06 0.06 0.06 0.06 0.06 0.06 0.06 0.06 0.06 0.06 0.07 0.07 0.07 0.07 0.07 0.07 0.07 0.08 0.08 0.08 0.07 0.07 0.07 0.07 0.07 0.08 0.09 0.10 0.09 0.09 0.09 0.09 0.09 0.09 0.09 0.09 0.09 0.09 0.10 0.11 0.11
0.05 0.05 0.05 0.05 0.05 0.05 0.05 0.05 0.05 0.05 0.05 0.05 0.05 0.06 0.06 0.06 0.06 0.06 0.06 0.06 0.06 0.06 0.06 0.06 0.06 0.06 0.06 0.06 0.06 0.06 0.06 0.06 0.06 0.07 0.07 0.07 0.07 0.07 0.07 0.08 0.08 0.09 0.09 0.09 0.09 0.09 0.09 0.09 0.09 0.08 0.08 0.08 0.08 0.08 0.08 0.08 0.08 0.08 0.08 0.08 0.09 0.09 0.09
0.05 0.05 0.05 0.05 0.05 0.05 0.05 0.05 0.05 0.05 0.05 0.05 0.06 0.06 0.06 0.06 0.06 0.06 0.06 0.06 0.06 0.06 0.06 0.06 0.06 0.06 0.06 0.06 0.05 0.06 0.06 0.06 0.06 0.06 0.06 0.06 0.06 0.06 0.07 0.07 0.07 0.07 0.07 0.07 0.07 0.07 0.08 0.08 0.08 0.08 0.09 0.09 0.08 0.08 0.08 0.09 0.09 0.09 0.09 0.10 0.11 0.10 0.09
0.05 0.05 0.05 0.05 0.05 0.05 0.05 0.05 0.05 0.06 0.06 0.06 0.06 0.06 0.06 0.06 0.06 0.06 0.06 0.06 0.06 0.06 0.05 0.05 0.05 0.05 0.05 0.05 0.05 0.05 0.06 0.06 0.06 0.06 0.06 0.06 0.06 0.06 0.06 0.06 0.06 0.07 0.07 0.08 0.08 0.08 0.08 0.08 0.09 0.08 0.08 0.08 0.08 0.08 0.09 0.09 0.10 0.10 0.10 0.09 0.09 0.09 0.09
0.05 0.05 0.05 0.05 0.05 0.05 0.06 0.05 0.05 0.05 0.05 0.05 0.05 0.05 0.05 0.06 0.06 0.06 0.05 0.06 0.05 0.05 0.05 0.05 0.05 0.05 0.05 0.05 0.05 0.05 0.05 0.06 0.06 0.06 0.06 0.06 0.06 0.06 0.06 0.06 0.06 0.06 0.07 0.07 0.07 0.07 0.08 0.08 0.08 0.08 0.08 0.08 0.08 0.08 0.09 0.09 0.09 0.09 0.09 0.09 0.09 0.08 0.08
0.05 0.05 0.05 0.05 0.05 0.05 0.05 0.05 0.05 0.05 0.05 0.05 0.05 0.05 0.05 0.05 0.05 0.05 0.05 0.05 0.05 0.05 0.05 0.05 0.05 0.05 0.05 0.05 0.05 0.05 0.05 0.06 0.06 0.06 0.06 0.06 0.06 0.06 0.06 0.06 0.06 0.06 0.07 0.07 0.07 0.07 0.07 0.07 0.07 0.07 0.07 0.08 0.08 0.08 0.08 0.08 0.08 0.08 0.08 0.08 0.08 0.08 0.08
0.04 0.04 0.05 0.05 0.05 0.05 0.05 0.05 0.05 0.05 0.05 0.05 0.05 0.05 0.05 0.05 0.05 0.05 0.05 0.05 0.05 0.05 0.05 0.05 0.05 0.05 0.05 0.05 0.05 0.05 0.05 0.06 0.06 0.06 0.06 0.06 0.06 0.06 0.06 0.06 0.06 0.06 0.06 0.06 0.06 0.07 0.07 0.07 0.07 0.07 0.07 0.07 0.07 0.07 0.07 0.07 0.08 0.08 0.08 0.08 0.08 0.08 0.08
0.04 0.04 0.04 0.04 0.04 0.04 0.05 0.05 0.05 0.05 0.05 0.05 0.05 0.05 0.05 0.05 0.05 0.05 0.05 0.05 0.05 0.05 0.05 0.05 0.05 0.05 0.05 0.05 0.05 0.05 0.05 0.05 0.05 0.06 0.06 0.06 0.06 0.06 0.06 0.06 0.06 0.06 0.06 0.06 0.06 0.06 0.07 0.07 0.07 0.07 0.07 0.07 0.08 0.08 0.08 0.08 0.08 0.08 0.08 0.07 0.07 0.08 0.08
0.03 0.04 0.04 0.04 0.04 0.04 0.04 0.04 0.04 0.04 0.05 0.05 0.05 0.05 0.05 0.05 0.05 0.04 0.04 0.05 0.04 0.04 0.05 0.05 0.05 0.05 0.05 0.05 0.05 0.05 0.05 0.05 0.05 0.05 0.05 0.05 0.05 0.06 0.06 0.06 0.06 0.06 0.06 0.06 0.06 0.06 0.06 0.06 0.07 0.07 0.07 0.07 0.07 0.07 0.07 0.07 0.08 0.08 0.08 0.08 0.08 0.08 0.08
0.03 0.03 0.04 0.04 0.04 0.04 0.04 0.04 0.04 0.04 0.04 0.04 0.04 0.04 0.04 0.04 0.04 0.04 0.04 0.04 0.04 0.04 0.04 0.05 0.05 0.05 0.05 0.05 0.05 0.05 0.05 0.05 0.05 0.05 0.05 0.05 0.05 0.05 0.05 0.05 0.05 0.06 0.06 0.06 0.06 0.06 0.06 0.06 0.06 0.07 0.07 0.07 0.07 0.07 0.07 0.07 0.07 0.08 0.08 0.08 0.08 0.08 0.08
Wind_Speed
32 33 33 34 35 35 36 37 37 38 38 39 39 40 40 40 41 41 42 42 43 43 44 44 45 45 45 45 45 46 46 47 47 48 48 48 49 49 49 49 49 50 49 49 50 50 50 49 49 49 48 48 48 49 50 50 50 50 50 50 50 49 50
32 32 33 34 34 35 36 36 37 38 38 39 39 40 40 40 40 41 41 41 42 42 42 43 44 45 45 45 46 46 46 46 47 47 47 48 48 48 49 49 49 49 49 49 50 50 50 50 49 50 49 49 49 49 49 50 50 50 50 50 50 50 50
32 32 33 34 34 35 35 36 36 37 38 38 39 39 39 40 40 40 41 41 41 41 42 42 43 44 44 44 45 46 46 46 46 46 47 47 47 48 48 48 48 49 49 49 49 49 50 50 50 50 50 49 49 49 50 50 50 50 51 51 51 50 50
32 33 33 34 34 35 35 36 36 37 37 37 38 38 39 39 40 40 41 41 41 42 42 42 42 43 43 43 44 44 45 45 46 46 46 47 47 47 47 48 48 49 49 49 49 49 49 49 49 49 49 49 49 49 49 49 49 50 50 50 50 49 49
33 33 34 34 35 35 36 36 37 37 38 38 38 38 39 39 40 40 40 41 41 42 42 42 42 42 43 43 43 44 44 44 45 45 46 46 46 47 47 47 48 48 48 48 48 48 48 48 48 48 48 48 48 48 48 48 48 49 49 49 49 49 49
33 34 34 35 35 36 36 37 37 38 38 39 39 39 40 40 40 40 41 41 41 41 42 42 43 43 43 43 43 43 44 44 44 45 45 46 46 46 47 47 47 48 48 49 49 49 49 49 49 48 48 47 47 48 48 48 48 48 48 49 49 49 50
33 34 34 35 36 36 37 38 38 39 39 40 40 40 41 41 41 41 42 42 42 42 42 42 42 42 43 43 43 44 44 44 44 44 45 45 45 46 46 47 47 47 48 49 49 49 50 50 50 50 49 48 48 48 49 49 48 49 49 49 49 50 50
35 35 35 36 36 37 37 38 39 39 40 40 41 41 42 42 42 43 43 43 43 43 43 43 43 43 43 43 43 44 44 44 44 45 45 45 45 45 46 46 46 47 47 48 49 49 49 49 50 50 50 50 49 50 50 50 49 50 50 50 51 51 52
36 37 37 37 37 38 38 39 39 40 40 41 41 42 42 43 43 44 44 44 44 44 44 44 44 44 44 44 44 44 44 45 45 45 45 45 45 45 46 46 47 47 47 47 48 48 49 49 49 49 49 50 50 51 51 50 50 51 50 50 51 51 52
38 38 39 39 39 39 40 40 40 41 41 42 42 42 43 43 44 44 44 45 45 45 46 46 46 46 46 46 46 46 46 46 46 46 46 46 46 46 46 46 47 47 47 48 48 48 48 49 49 49 49 50 50 50 50 50 51 51 50 50 50 51 51
41 41 41 41 41 42 42 42 43 43 44 44 44 44 44 45 45 45 45 46 46 46 46 46 46 47 47 47 47 48 48 48 48 48 48 48 48 48 48 48 47 47 48 48 48 49 49 49 50 49 49 50 50 49 50 50 51 51 51 50 51 51 50
43 43 44 44 44 44 44 45 45 46 46 46 47 47 47 47 47 47 47 48 48 48 47 47 47 47 47 48 48 49 49 49 49 49 49 50 49 49 49 49 49 49 49 48 49 49 49 49 49 49 49 49 49 49 50 50 50 51 51 51 51 51 50
46 46 46 47 47 47 47 47 48 48 49 49 49 49 49 49 50 50 50 50 50 50 50 50 49 49 49 49 49 49 49 50 50 50 50 51 51 51 51 51 51 51 51 51 50 50 50 50 49 49 49 48 48 48 49 49 50 51 51 51 51 51 50
48 48 49 49 49 49 49 49 50 50 51 51 51 51 51 51 51 52 52 52 52 52 52 52 52 51 51 51 51 51 51 51 51 51 51 51 51 51 52 52 52 53 53 53 53 53 53 52 51 51 51 50 49 49 49 49 50 50 51 52 52 52 51
50 51 51 51 51 51 51 51 52 52 52 52 52 53 53 53 53 53 53 53 53 53 53 53 53 53 53 53 53 53 53 52 52 52 53 53 53 53 53 53 53 53 54 54 54 54 54 54 54 54 54 53 53 53 52 52 51 52 52 52 53 53 52
52 52 53 53 53 53 53 53 53 54 54 54 54 54 54 54 54 55 55 55 55 55 55 55 55 55 55 55 54 54 54 54 54 54 54 55 55 55 55 54 54 54 54 54 54 55 55 55 55 55 56 56 56 56 56 55 55 55 54 54 54 55 54
54 54 54 54 54 54 55 55 55 55 55 56 56 56 55 56 56 56 56 56 55 55 55 55 55 55 55 55 55 55 56 56 56 56 56 56 56 56 56 56 56 56 56 56 56 56 56 56 57 56 57 56 56 57 56 56 57 58 57 57 57 57 57
55 55 55 56 56 56 57 56 56 57 57 57 57 57 56 57 57 57 57 57 56 56 56 55 56 56 56 56 56 57 57 57 57 57 57 57 56 56 56 56 56 56 57 57 58 58 58 58 58 58 58 58 57 57 57 57 58 58 57 58 59 59 59
57 57 57 58 58 58 58 58 58 58 58 58 58 58 58 58 58 58 58 57 57 57 57 57 57 58 58 58 58 59 59 58 58 58 57 57 58 58 58 57 56 56 57 57 58 58 58 58 58 59 59 59 59 59 59 59 59 58 58 59 59 59 59
59 59 59 60 60 60 59 59 59 59 59 59 59 59 59 58 59 59 59 58 59 59 59 59 58 59 59 59 59 59 59 59 59 59 59 59 59 60 60 59 59 59 59 59 59 59 59 60 60 60 60 59 59 60 60 60 60 60 60 60 60 60 60
60 60 60 60 60 59 59 59 59 59 59 59 59 59 59 59 59 59 59 59 59 59 59 59 59 58 59 59 59 59 59 59 60 59 59 60 60 60 61 60 60 61 61 61 61 61 61 61 61 60 60 60 60 60 61 61 61 62 62 62 62 62 62
59 59 59 59 59 58 58 58 58 58 58 58 58 58 58 58 58 59 59 59 59 59 59 59 58 59 59 60 60 60 60 60 60 59 59 60 61 61 61 61 61 61 61 61 61 61 61 61 60 60 61 61 61 61 61 61 62 63 63 64 64 64 64
58 58 58 57 57 57 56 56 56 56 57 57 57 57 58 58 58 58 58 58 58 58 58 58 58 58 59 59 59 59 60 60 60 59 59 60 61 62 62 62 62 62 62 62 62 62 61 61 61 61 62 62 62 62 62 62 62 63 63 64 64 65 66
56 56 56 56 55 55 55 55 55 55 55 56 56 56 57 57 57 57 56 56 57 57 57 58 58 58 59 59 59 59 60 60 60 60 60 61 61 61 61 61 61 62 62 62 62 62 62 62 62 62 62 62 62 62 62 63 63 63 63 64 64 65 65
55 55 55 55 55 55 54 54 54 54 54 54 55 55 54 54 54 54 54 55 55 56 56 57 57 57 57 58 58 59 59 59 59 60 60 60 60 60 60 60 61 61 61 61 62 62 62 62 62 62 62 61 61 61 61 62 62 63 63 64 64 64 64
53 53 53 54 54 54 54 53 53 53 53 53 52 52 52 52 52 52 53 54 54 54 54 55 55 55 55 55 56 57 57 58 58 59 59 59 59 59 58 59 59 59 60 60 61 61 61 61 60 60 60 60 60 60 61 61 61 62 62 63 63 63 63
51 51 51 52 52 52 52 52 52 51 51 51 51 51 51 51 52 52 53 53 53 53 53 54 54 54 55 55 56 56 56 57 57 57 57 56 56 56 56 56 56 57 58 58 58 58 59 58 58 58 59 59 59 60 60 60 60 61 61 61 62 62 63
50 50 50 50 50 50 50 50 50 49 49 49 49 49 49 50 50 51 52 52 52 52 53 53 53 54 54 54 54 54 54 54 54 54 54 54 54 54 54 54 54 55 55 56 56 56 57 57 57 57 57 57 57 58 58 58 58 59 59 60 60 61 62
50 50 50 50 50 50 50 49 49 49 49 48 48 49 49 48 49 49 50 50 51 51 50 51 51 51 51 51 51 51 52 52 52 52 52 52 52 52 52 52 53 53 53 54 54 55 55 55 55 55 55 54 54 55 55 55 56 56 57 57 58 58 59
50 50 50 50 50 50 50 50 49 49 49 49 49 49 49 48 48 49 49 49 49 48 48 48 48 48 48 48 48 48 49 49 49 49 50 50 50 50 50 51 51 51 51 52 52 52 53 53 53 53 52 52 52 52 52 53 53 53 54 54 54 55 55
49 50 50 50 50 50 50 50 50 49 49 48 48 48 48 48 48 48 48 48 47 47 46 46 46 46 46 46 47 47 47 47 47 47 47 47 47 48 48 48 49 49 49 50 50 50 50 51 51 51 51 50 51 51 51 51 51 51 51 52 53 54 55
48 48 48 48 48 48 48 48 48 48 48 47 47 47 46 47 47 47 47 47 46 46 46 45 45 45 45 45 45 45 45 45 45 45 45 45 45 46 46 46 46 47 47 48 48 48 49 49 49 50 50 50 50 50 50 50 50 50 51 51 52 53 53
46 46 46 46 46 46 46 46 46 46 46 46 46 46 46 46 46 46 46 45 45 44 44 44 44 44 44 43 43 43 43 44 43 43 43 43 43 44 44 44 45 45 45 46 46 46 47 47 47 47 47 48 49 49 48 48 49 49 49 49 49 50 51
43 44 44 44 44 44 44 44 44 44 44 44 45 45 45 45 45 45 44 43 43 43 43 43 42 42 42 41 41 41 41 41 41 41 41 42 42 42 43 43 43 43 44 44 44 44 44 44 44 44 44 44 45 45 45 45 45 45 46 46 46 46 47
41 41 41 42 42 42 43 43 43 42 42 42 42 43 43 43 43 42 42 42 42 41 41 41 40 40 40 40 39 39 39 39 39 39 40 40 40 41 41 42 42 42 42 42 42 42 43 43 43 43 43 43 43 42 42 42 42 42 43 43 43 43 43
39 39 39 40 40 40 41 40 40 40 40 40 41 41 41 41 41 41 41 41 40 40 40 40 40 39 39 39 39 39 39 39 39 39 39 39 39 40 40 40 40 41 41 41 41 41 42 42 42 42 42 42 42 42 41 41 41 41 40 40 40 40 39
Wind_Direction
263 263 262 262 262 262 262 262 262 262 262 262 262 262 263 263 264 264 263 263 263 263 263 262 262 262 261 261 261 260 260 260 260 260 259 259 259 258 258 257 256 257 258 257 257 258 258 258 257 257 257 258 258 257 257 257 257 257 257 257 257 256 256
264 265 264 264 264 264 264 264 264 263 263 263 263 264 264 264 264 264 264 264 264 263 263 263 263 262 262 261 261 261 261 261 260 260 260 259 259 258 258 257 257 257 258 258 258 257 258 258 258 257 257 258 258 258 257 257 257 257 257 257 257 257 257
266 266 266 266 266 265 265 265 265 265 265 265 265 265 265 265 265 265 265 264 264 264 264 263 263 263 262 262 261 261 261 261 260 260 260 259 259 258 258 257 257 257 258 258 258 257 258 258 258 258 258 258 258 258 257 257 257 257 257 256 256 256 256
268 267 267 266 266 266 266 266 266 266 266 266 266 266 266 266 265 265 265 265 265 264 264 264 264 263 263 262 262 261 261 261 260 260 260 259 259 258 258 257 257 257 258 258 258 258 258 258 258 258 258 258 258 257 257 257 257 257 256 256 256 256 256
270 269 268 268 268 268 267 267 267 267 267 266 267 267 267 266 266 266 266 265 265 265 265 264 264 264 263 263 262 262 261 261 260 260 260 259 259 258 258 258 258 258 258 258 258 258 258 258 258 258 258 258 257 257 257 257 257 257 256 256 256 256 256
271 271 270 270 270 270 269 269 268 268 268 268 268 268 267 267 267 267 266 266 266 266 265 265 264 264 263 263 263 262 262 261 261 260 260 259 259 258 258 258 258 258 258 258 258 258 258 258 258 258 258 257 257 256 256 256 256 256 256 256 256 256 256
272 271 271 271 271 271 271 270 269 269 269 269 269 269 269 268 268 268 267 267 266 266 266 265 265 264 263 263 262 262 262 262 261 261 260 260 260 259 259 259 258 258 258 258 258 258 258 258 257 257 257 257 257 257 256 256 256 256 256 256 256 256 256
273 272 272 272 272 271 271 270 269 269 270 270 270 269 269 269 269 268 268 267 267 266 266 266 265 265 264 264 263 263 262 262 262 262 261 261 261 260 260 259 259 259 258 258 258 258 258 258 257 257 257 257 257 257 257 256 256 256 257 256 256 257 257
274 273 273 273 272 272 272 271 270 270 270 270 270 269 269 269 269 269 268 268 267 267 266 266 265 265 265 265 264 264 263 263 263 262 262 262 262 261 261 260 260 259 259 259 259 258 258 258 258 258 257 257 257 257 257 256 256 256 257 257 257 258 258
275 274 273 273 273 273 273 272 271 271 271 271 270 270 269 269 269 269 268 268 268 267 267 266 265 265 265 265 264 264 264 264 264 263 263 262 262 262 261 261 261 260 259 259 259 259 259 258 258 258 258 257 257 257 257 256 255 256 257 257 258 258 258
275 274 274 273 273 273 273 272 272 272 272 272 271 270 269 269 269 269 268 268 268 268 267 266 266 265 264 264 264 264 264 264 264 263 263 263 262 262 261 261 261 260 260 259 259 259 259 258 259 258 258 258 258 258 257 257 256 256 257 257 257 259 259
275 275 274 274 274 274 273 273 273 273 272 272 272 271 270 269 269 269 269 268 268 268 267 267 266 265 265 264 264 264 263 263 263 263 263 263 263 262 262 261 261 260 260 259 259 259 259 259 259 259 258 258 258 258 258 257 256 256 256 257 257 258 259
276 275 275 274 274 274 274 273 273 273 273 272 272 271 270 269 269 269 268 268 268 267 267 266 266 265 265 264 264 264 263 263 262 262 262 262 262 262 262 261 261 260 260 260 259 259 259 259 259 259 258 258 258 258 258 258 257 257 257 257 257 258 259
276 276 276 275 275 274 274 274 274 273 273 272 272 271 271 270 269 269 268 268 267 267 267 266 266 265 265 264 264 264 264 263 263 262 262 262 262 262 262 261 261 261 260 260 260 260 260 259 259 259 259 258 258 258 258 258 258 257 257 257 258 259 259
277 276 276 275 275 274 274 274 274 274 273 273 272 272 271 270 269 269 268 268 268 267 267 266 266 265 265 265 264 264 264 264 263 263 263 262 262 262 261 261 261 261 261 260 260 260 260 260 259 259 259 259 258 258 258 258 258 258 258 258 259 259 259
276 276 276 275 275 274 274 274 274 274 273 273 273 272 271 270 270 269 269 268 268 267 267 267 266 266 265 265 265 264 264 264 264 264 264 263 263 262 262 261 261 261 261 261 261 260 260 260 260 260 260 259 259 259 259 259 259 259 259 259 259 259 259
276 276 275 275 274 274 274 274 274 274 273 273 273 272 271 270 270 269 269 268 268 267 267 267 266 266 265 265 265 264 264 264 264 264 264 264 263 263 262 262 262 261 261 261 261 261 261 261 261 260 260 260 260 259 259 259 259 259 259 259 259 259 259
276 276 275 275 275 275 275 274 274 274 274 273 273 272 271 270 270 269 269 269 268 267 267 266 266 266 265 265 265 265 265 264 264 264 263 263 263 263 263 263 262 261 261 261 261 261 261 261 261 261 260 260 260 260 259 259 259 259 259 259 259 260 260
276 276 275 275 275 275 275 274 274 274 274 273 273 272 271 271 270 270 269 269 268 267 267 266 266 266 265 265 265 265 264 264 263 263 263 263 263 263 263 262 262 262 261 261 261 261 261 261 261 260 260 260 260 260 259 259 259 259 259 259 259 260 260
276 276 275 275 275 275 275 274 274 274 273 273 272 272 271 270 270 269 269 269 268 268 267 267 266 266 266 265 265 264 264 263 263 263 263 263 263 263 263 262 262 262 262 262 262 262 262 261 261 261 260 260 260 260 260 259 259 259 259 259 260 260 260
276 276 276 275 275 275 274 274 274 273 273 272 272 272 271 270 270 269 269 268 268 268 267 267 266 266 266 265 265 264 264 263 263 263 263 263 263 263 263 262 262 262 262 262 262 262 262 261 261 261 260 260 260 260 260 260 259 259 259 259 259 260 260
276 276 275 275 275 274 274 274 274 273 273 272 272 272 271 270 270 269 269 268 268 267 267 266 266 265 265 265 265 264 264 263 263 263 263 263 263 263 263 263 262 262 262 262 262 262 261 261 261 260 261 261 261 261 260 260 260 259 259 259 259 259 260
276 276 275 275 275 274 274 274 274 273 273 272 272 272 271 270 270 269 269 268 268 267 267 267 266 266 265 265 265 265 264 263 263 263 263 263 264 264 264 263 263 262 262 262 261 261 261 261 260 260 261 261 261 261 261 261 260 260 260 260 260 260 260
276 276 275 275 274 274 274 274 273 273 273 272 272 272 271 270 270 269 269 268 268 267 267 267 266 266 266 265 265 265 264 264 263 263 263 264 264 264 264 263 263 263 262 262 262 261 261 261 261 261 261 261 261 261 261 261 261 260 260 260 260 260 260
276 275 275 274 274 274 274 274 273 273 273 272 272 271 271 270 269 269 269 268 268 267 267 267 267 267 266 266 265 265 264 263 263 263 263 264 264 264 264 263 263 263 262 262 262 262 261 261 261 261 261 261 261 261 261 261 261 261 260 260 261 261 261
276 275 275 274 274 274 274 273 273 273 272 272 271 270 270 269 269 269 269 269 268 268 268 267 267 267 266 266 265 265 264 264 264 264 264 264 264 264 263 263 263 262 262 262 262 262 262 261 261 261 261 261 261 261 261 261 261 261 260 260 261 261 261
276 276 275 275 275 274 274 274 273 273 272 271 270 270 269 269 268 269 269 269 269 269 268 267 267 267 266 266 265 265 265 264 264 264 263 263 263 263 263 263 263 263 262 262 262 262 262 262 261 261 261 261 261 261 261 261 261 261 261 260 260 260 260
277 276 276 275 275 275 274 274 273 273 272 271 270 270 270 269 269 269 269 269 269 269 269 268 268 267 267 266 266 265 265 264 263 263 263 263 263 263 263 263 263 262 262 262 262 262 262 262 262 261 262 261 261 261 261 261 261 261 261 261 260 260 260
277 277 276 276 275 275 274 273 273 273 272 271 271 270 270 270 270 269 269 270 270 270 269 268 268 268 267 267 266 266 265 264 263 263 262 263 263 263 263 262 262 262 262 262 262 262 262 262 262 262 262 262 262 262 262 261 261 261 261 261 260 260 260
278 277 276 276 275 274 273 273 273 272 272 271 271 271 271 270 270 270 270 270 270 270 269 268 268 267 267 267 266 266 265 264 264 263 263 263 263 263 263 263 262 262 262 262 262 262 262 262 262 262 261 261 262 262 262 262 261 261 261 261 260 260 260
279 278 277 276 275 274 273 273 272 272 271 271 271 270 270 270 270 270 270 270 270 269 268 268 267 267 267 266 266 266 265 265 264 264 263 263 263 263 263 263 263 262 262 262 262 262 262 262 262 261 261 261 262 262 262 261 262 262 261 261 261 261 262
280 279 278 277 276 275 274 273 272 272 271 271 270 270 270 270 269 270 270 270 269 268 267 267 267 266 266 266 266 265 265 265 265 264 264 264 264 264 264 263 263 263 263 263 262 262 262 262 262 262 261 261 262 262 262 261 262 262 262 261 261 261 261
281 280 279 278 277 276 275 274 273 272 271 271 270 270 270 269 269 270 270 269 268 267 267 266 266 266 266 266 265 265 265 265 264 264 264 264 264 264 264 264 263 263 263 263 263 262 262 262 262 262 262 262 262 262 261 261 262 262 262 262 262 261 261
282 281 280 279 278 277 276 275 274 273 272 271 271 270 270 269 269 269 269 268 267 266 266 266 266 266 265 265 265 265 265 265 264 264 264 264 264 263 264 264 264 264 263 263 263 262 262 262 262 262 262 262 262 261 261 261 261 262 262 262 262 262 262
283 282 281 279 278 277 276 275 274 274 273 272 271 271 271 270 269 269 268 267 266 266 266 266 265 265 265 265 265 265 265 265 265 265 264 264 264 264 264 264 264 264 263 263 263 262 262 261 261 261 261 261 261 261 261 262 262 262 262 262 262 262 261
284 283 281 280 279 278 277 276 275 273 272 272 273 273 272 270 269 268 267 267 266 266 265 265 265 265 265 264 264 264 264 264 265 265 265 264 264 265 265 265 264 264 263 263 263 262 262 261 261 261 260 260 260 261 261 261 261 261 261 261 262 262 260